Simultaneous Nadir Overpasses (SNOs) Predictions

Prediction of SNOs between GOES-14 and NOAA-20 Satellite Orbit:

Table of predicted SNOs for the next 14.0 days since TLE Epoch: 10/12/2024
Index Date Time (GOES-14) GOES-14 Lat,Lon NOAA-20 Lat,Lon Distance(km) Time Diff (sec)
1 10/13/2024 08:50:31 -0.07,-108.57 0.54,-111.29 309.81 80
2 10/14/2024 08:29:07 -0.08,-108.57 -0.50,-106.77 206.28 80
3 10/15/2024 20:51:04 0.07,-108.52 -0.72,-112.07 404.81 80
4 10/16/2024 20:34:59 0.08,-108.52 0.27,-107.54 111.86 80
5 10/18/2024 08:56:48 -0.07,-108.60 0.87,-112.82 481.36 80
6 10/19/2024 08:35:24 -0.07,-108.60 -0.14,-108.29 34.71 80
7 10/21/2024 20:38:36 0.07,-108.53 -0.04,-109.07 60.93 80
8 10/22/2024 20:22:31 0.08,-108.53 0.98,-104.54 455.45 80
9 10/24/2024 08:44:20 -0.07,-108.61 0.18,-109.82 137.48 80
10 10/25/2024 08:22:54 -0.08,-108.61 -0.80,-105.28 378.77 80
